Home > Weather > Geraldton > Past weeks

Flag for Australia Past Weather in Geraldton, Western Australia, Australia — Yesterday and Last 2 Weeks

Now
51 °F

Cool.


Feels Like: 49 °F
Forecast: 57 / 69 °F
Wind: 7 mph from Northeast

Location: Geraldton Airport

Current Time: May 27, 2016 at 8:39:03 AM

Latest Report: May 27, 2016 at 6:00 AM


Visibility: N/A

Pressure: 30.16 "Hg

Humidity: 95%

Dew Point: 50 °F

Location of GeraldtonLocation

Past Weather in Geraldton — Graph

°F

Geraldton Temperature Yesterday

Maximum temperature yesterday: 68 °F (at 2:00 PM)
Minimum temperature yesterday: 55 °F (at 11:00 PM)
Average temperature yesterday: 63 °F

High & Low Weather Summary for the Past Weeks

 TemperatureHumidityPressure
High80 °F (May 12, 3:00 PM)100% (May 13, 8:00 AM)30.20 "Hg (May 13, 8:00 AM)
Low47 °F (May 18, 3:00 AM)20% (May 12, 3:00 PM)29.66 "Hg (May 21, 8:00 AM)
Average62 °F75%30.02 "Hg
* Reported May 12 6:00 AM — May 27 6:00 AM, Geraldton, Weather by CustomWeather, © 2016

Note: Actual official high and low records may vary slightly from our data, if they occured in-between our weather recording intervals... More about our weather records

Advertising

Geraldton Weather History for the Previous 24 Hours

Scroll right to see more
 ConditionsComfort  
Time TempWeatherWind HumidityBarometerVisibility
6:00 AM
Fri, May 27
51 °FCool.7 mph95%30.16 "HgN/A
5:00 AM52 °FCool.8 mph96%30.15 "HgN/A
3:00 AM53 °FCool.3 mph94%30.16 "HgN/A
2:00 AM55 °FCool.1 mph93%30.16 "HgN/A
12:00 AM56 °FCool.7 mph94%30.18 "HgN/A
11:00 PM
Thu, May 26
55 °FCool.6 mph95%30.19 "HgN/A
9:00 PM59 °FCool.6 mph92%30.19 "HgN/A
8:00 PM61 °FCool.9 mph87%30.15 "HgN/A
6:00 PM63 °FMild.3 mph85%30.14 "HgN/A
5:00 PM65 °FMild.5 mph80%30.12 "HgN/A
3:00 PM67 °FPassing clouds.8 mph64%30.09 "HgN/A
2:00 PM68 °FMild.9 mph57%30.10 "HgN/A
12:00 PM67 °FScattered clouds.8 mph62%30.11 "HgN/A
11:00 AM67 °FMild.9 mph56%30.11 "HgN/A
9:00 AM63 °FPassing clouds.No wind85%30.09 "HgN/A
8:00 AM62 °FCool.6 mph80%30.07 "HgN/A
Weather by CustomWeather, © 2016

See weather overviewHow to use our weather pages